• In Belarus
  • List of Countries
  • For 7 days
  • Water Temperature
  • Satellite Maps
  • Weather Map
  • Weather Widgets
  • user-avatar
    Login

    Hourly Weather Shitiki

    Today, 18 January, Friday

    Time Temperature Precipitation Wind Pressure Humidity
    00:00 -1°C° 0 mm 5 mps 727 mmHg 89%
    01:00 -1°C° 0 mm 5 mps 727 mmHg 89%
    02:00 -1°C° 0 mm 5 mps 728 mmHg 88%
    03:00 -1°C° 0 mm 5 mps 728 mmHg 88%
    04:00 -1°C° 0 mm 5 mps 729 mmHg 88%
    05:00 -1°C° 0 mm 5 mps 729 mmHg 88%
    06:00 -2°C° 0 mm 5 mps 729 mmHg 89%
    07:00 -2°C° 0 mm 5 mps 730 mmHg 90%
    08:00 -2°C° 0 mm 4 mps 730 mmHg 91%
    09:00 -2°C° 0.2 mm 4 mps 730 mmHg 91%
    10:00 -2°C° 0.2 mm 4 mps 730 mmHg 91%
    11:00 -2°C° 0.2 mm 4 mps 730 mmHg 91%
    12:00 -2°C° 0.6 mm 4 mps 730 mmHg 92%
    13:00 -1°C° 0.6 mm 3 mps 730 mmHg 94%
    14:00 -1°C° 0.6 mm 3 mps 729 mmHg 95%
    15:00 -1°C° 1.2 mm 3 mps 729 mmHg 95%
    16:00 -2°C° 1.2 mm 3 mps 729 mmHg 94%
    17:00 -4°C° 1.2 mm 3 mps 729 mmHg 94%
    18:00 -5°C° 0.6 mm 4 mps 730 mmHg 94%
    19:00 -8°C° 0.6 mm 4 mps 730 mmHg 93%
    20:00 -9°C° 0.6 mm 4 mps 731 mmHg 92%
    21:00 -9°C° 0.1 mm 3 mps 732 mmHg 92%
    22:00 -9°C° 0.1 mm 3 mps 733 mmHg 92%
    23:00 -10°C° 0.1 mm 3 mps 734 mmHg 93%

    Tomorrow, 19 January, Saturday

    Time Temperature Precipitation Wind Pressure Humidity
    00:00 -10°C° 0 mm 3 mps 734 mmHg 94%
    01:00 -12°C° 0 mm 3 mps 735 mmHg 94%
    02:00 -13°C° 0 mm 3 mps 736 mmHg 95%
    03:00 -12°C° 0 mm 3 mps 736 mmHg 95%
    04:00 -10°C° 0 mm 3 mps 736 mmHg 95%
    05:00 -10°C° 0 mm 4 mps 736 mmHg 94%
    06:00 -10°C° 0.1 mm 4 mps 737 mmHg 93%
    07:00 -10°C° 0.1 mm 4 mps 737 mmHg 92%
    08:00 -9°C° 0.1 mm 4 mps 737 mmHg 91%
    09:00 -9°C° 0.1 mm 4 mps 737 mmHg 91%
    10:00 -9°C° 0.1 mm 4 mps 738 mmHg 91%
    11:00 -9°C° 0.1 mm 4 mps 738 mmHg 91%
    12:00 -8°C° 0 mm 4 mps 738 mmHg 91%
    13:00 -8°C° 0 mm 4 mps 739 mmHg 91%
    14:00 -8°C° 0 mm 4 mps 739 mmHg 91%
    15:00 -8°C° 0 mm 4 mps 739 mmHg 91%
    16:00 -7°C° 0 mm 3 mps 740 mmHg 91%
    17:00 -7°C° 0 mm 3 mps 740 mmHg 91%
    18:00 -7°C° 0.1 mm 3 mps 740 mmHg 91%
    19:00 -7°C° 0.1 mm 3 mps 740 mmHg 92%
    20:00 -7°C° 0.1 mm 3 mps 741 mmHg 92%
    21:00 -8°C° 0 mm 3 mps 741 mmHg 93%
    22:00 -9°C° 0 mm 3 mps 741 mmHg 95%
    23:00 -9°C° 0 mm 3 mps 741 mmHg 96%

    Day after tomorrow, 20 January, Sunday

    Time Temperature Precipitation Wind Pressure Humidity
    00:00 -8°C° 0 mm 3 mps 741 mmHg 95%
    01:00 -7°C° 0 mm 3 mps 741 mmHg 94%
    02:00 -7°C° 0 mm 4 mps 741 mmHg 92%
    03:00 -7°C° 0.1 mm 4 mps 740 mmHg 92%
    04:00 -7°C° 0.1 mm 4 mps 740 mmHg 91%
    05:00 -6°C° 0.1 mm 5 mps 739 mmHg 90%
    06:00 -6°C° 0.1 mm 5 mps 739 mmHg 90%
    07:00 -6°C° 0.1 mm 5 mps 739 mmHg 89%
    08:00 -6°C° 0.1 mm 5 mps 738 mmHg 88%
    09:00 -6°C° 0.1 mm 6 mps 738 mmHg 88%
    10:00 -6°C° 0.1 mm 6 mps 738 mmHg 87%
    11:00 -5°C° 0.1 mm 6 mps 738 mmHg 87%
    12:00 -5°C° 0.1 mm 6 mps 738 mmHg 87%
    13:00 -5°C° 0.1 mm 6 mps 738 mmHg 87%
    14:00 -5°C° 0.1 mm 6 mps 737 mmHg 87%
    15:00 -5°C° 0.5 mm 5 mps 738 mmHg 90%
    16:00 -5°C° 0.5 mm 4 mps 738 mmHg 92%
    17:00 -6°C° 0.5 mm 3 mps 738 mmHg 94%
    18:00 -6°C° 0.2 mm 3 mps 738 mmHg 94%
    19:00 -6°C° 0.2 mm 2 mps 738 mmHg 94%
    20:00 -7°C° 0.2 mm 2 mps 738 mmHg 95%
    21:00 -8°C° 0 mm 2 mps 738 mmHg 95%
    22:00 -10°C° 0 mm 2 mps 738 mmHg 95%
    23:00 -12°C° 0 mm 2 mps 739 mmHg 96%

    21 January, Monday

    Time Temperature Precipitation Wind Pressure Humidity
    00:00 -13°C° 0 mm 2 mps 739 mmHg 96%
    01:00 -12°C° 0 mm 1 mps 739 mmHg 97%
    02:00 -13°C° 0 mm 1 mps 739 mmHg 98%
    03:00 -13°C° 0 mm 1 mps 739 mmHg 98%
    04:00 -15°C° 0 mm 2 mps 739 mmHg 98%
    05:00 -14°C° 0 mm 2 mps 739 mmHg 97%
    06:00 -14°C° 0 mm 2 mps 740 mmHg 97%
    07:00 -15°C° 0 mm 2 mps 740 mmHg 97%
    08:00 -15°C° 0 mm 2 mps 740 mmHg 96%
    09:00 -14°C° 0 mm 2 mps 740 mmHg 96%
    10:00 -13°C° 0 mm 2 mps 740 mmHg 96%
    11:00 -13°C° 0 mm 2 mps 741 mmHg 95%
    12:00 -13°C° 0 mm 3 mps 741 mmHg 94%
    13:00 -12°C° 0 mm 3 mps 741 mmHg 93%
    14:00 -12°C° 0 mm 3 mps 741 mmHg 92%
    15:00 -12°C° 0.1 mm 3 mps 741 mmHg 91%
    16:00 -12°C° 0.1 mm 4 mps 741 mmHg 90%
    17:00 -12°C° 0.1 mm 4 mps 741 mmHg 89%
    18:00 -13°C° 0 mm 3 mps 742 mmHg 91%
    19:00 -14°C° 0 mm 3 mps 742 mmHg 93%
    20:00 -14°C° 0 mm 2 mps 742 mmHg 94%
    21:00 -15°C° 0 mm 2 mps 742 mmHg 96%
    22:00 -16°C° 0 mm 2 mps 742 mmHg 97%
    23:00 -17°C° 0 mm 2 mps 743 mmHg 98%

    22 January, Tuesday

    Time Temperature Precipitation Wind Pressure Humidity
    00:00 -16°C° 0 mm 2 mps 743 mmHg 98%
    01:00 -15°C° 0 mm 2 mps 743 mmHg 98%
    02:00 -14°C° 0 mm 2 mps 743 mmHg 98%
    03:00 -13°C° 0 mm 2 mps 743 mmHg 97%
    04:00 -12°C° 0 mm 2 mps 743 mmHg 97%
    05:00 -12°C° 0 mm 2 mps 743 mmHg 97%
    06:00 -12°C° 0.1 mm 2 mps 742 mmHg 97%
    07:00 -12°C° 0.1 mm 2 mps 742 mmHg 96%
    08:00 -12°C° 0.1 mm 2 mps 742 mmHg 96%
    09:00 -13°C° 0.1 mm 3 mps 741 mmHg 96%
    10:00 -12°C° 0.1 mm 3 mps 741 mmHg 95%
    11:00 -10°C° 0.1 mm 3 mps 741 mmHg 94%
    12:00 -10°C° 0.4 mm 3 mps 740 mmHg 94%
    13:00 -10°C° 0.4 mm 4 mps 740 mmHg 94%
    14:00 -10°C° 0.4 mm 4 mps 739 mmHg 93%
    15:00 -8°C° 0.2 mm 3 mps 739 mmHg 94%
    16:00 -8°C° 0.2 mm 3 mps 739 mmHg 94%
    17:00 -6°C° 0.2 mm 2 mps 739 mmHg 95%
    18:00 -6°C° 0.1 mm 2 mps 739 mmHg 95%
    19:00 -6°C° 0.1 mm 2 mps 739 mmHg 95%
    20:00 -5°C° 0.1 mm 2 mps 739 mmHg 95%
    21:00 -5°C° 0.1 mm 2 mps 739 mmHg 96%
    22:00 -5°C° 0.1 mm 2 mps 739 mmHg 96%
    23:00 -5°C° 0.1 mm 2 mps 739 mmHg 96%

    23 January, Wednesday

    Time Temperature Precipitation Wind Pressure Humidity
    00:00 -5°C° 0.1 mm 2 mps 739 mmHg 96%
    01:00 -5°C° 0.1 mm 2 mps 739 mmHg 97%
    02:00 -5°C° 0.1 mm 2 mps 739 mmHg 97%
    03:00 -6°C° 0.1 mm 2 mps 739 mmHg 97%
    04:00 -6°C° 0.1 mm 2 mps 739 mmHg 97%
    05:00 -6°C° 0.1 mm 2 mps 739 mmHg 97%
    06:00 -7°C° 0 mm 2 mps 739 mmHg 97%
    07:00 -7°C° 0 mm 2 mps 740 mmHg 97%
    08:00 -8°C° 0 mm 2 mps 740 mmHg 97%
    09:00 -8°C° 0 mm 2 mps 740 mmHg 97%
    10:00 -8°C° 0 mm 2 mps 740 mmHg 96%
    11:00 -8°C° 0 mm 2 mps 740 mmHg 96%
    12:00 -8°C° 0 mm 2 mps 740 mmHg 95%
    13:00 -8°C° 0 mm 2 mps 740 mmHg 95%
    14:00 -8°C° 0 mm 2 mps 740 mmHg 95%
    15:00 -8°C° 0 mm 1 mps 740 mmHg 95%
    16:00 -9°C° 0 mm 1 mps 740 mmHg 96%
    17:00 -10°C° 0 mm 1 mps 740 mmHg 96%
    18:00 -11°C° 0 mm 1 mps 740 mmHg 97%
    19:00 -12°C° 0 mm 1 mps 740 mmHg 97%
    20:00 -13°C° 0 mm 1 mps 740 mmHg 97%
    21:00 -13°C° 0 mm 1 mps 740 mmHg 97%
    22:00 -13°C° 0 mm 1 mps 740 mmHg 97%
    23:00 -13°C° 0 mm 1 mps 740 mmHg 97%
    Show more